Station Historical Data
Daily Summary for June 6, 2011 Units:  English    Metric   Both
« Previous Day
Next Day »
Daily Weekly Monthly Yearly Custom
  High: Low: Average:
Temperature: 90.2 °F 67.6 °F 78.7 °F
Dew Point: 72.4 °F 59.5 °F 66.7 °F
Humidity: 93% 37% 70%
Wind Speed: 8.0mph 0.0mph 2.8mph
Wind Gust: 12.0mph - -
Wind- - ENE
Pressure: 29.98 in 29.88 in -
Precipitation: 0.00 in    
Historical Graphs
 
 
Tabular Data for June 6, 2011
Time Temperature Dew Point Pressure Wind Wind Speed Wind Gust Humidity Rainfall Rate (Hourly) Conditions
00:00 72.2 °F 67.4 °F 29.97 in NNW 1.0 mph 1.0 mph 85% 0.00 in
00:03 71.9 °F 67.5 °F 29.97 in Calm   2.0 mph 86% 0.00 in
00:05 71.8 °F 67.4 °F 29.97 in NE 2.0 mph 2.0 mph 86% 0.00 in
00:08 71.8 °F 67.7 °F 29.97 in NE 4.0 mph 4.0 mph 87% 0.00 in
00:13 72.0 °F 67.6 °F 29.97 in North 2.0 mph 3.0 mph 86% 0.00 in
00:18 72.0 °F 67.6 °F 29.97 in NNE 2.0 mph 4.0 mph 86% 0.00 in
00:23 71.9 °F 67.5 °F 29.97 in NE 4.0 mph 5.0 mph 86% 0.00 in
00:28 71.8 °F 67.4 °F 29.97 in NE 3.0 mph 4.0 mph 86% 0.00 in
00:33 71.6 °F 67.2 °F 29.97 in NNW 3.0 mph 5.0 mph 86% 0.00 in
00:34 71.6 °F 67.2 °F 29.97 in NNE 1.0 mph 5.0 mph 86% 0.00 in
00:39 71.5 °F 67.1 °F 29.97 in NNE 1.0 mph 3.0 mph 86% 0.00 in
00:44 71.4 °F 67.0 °F 29.97 in NE 2.0 mph 3.0 mph 86% 0.00 in
00:45 71.4 °F 67.0 °F 29.97 in NNE 2.0 mph 3.0 mph 86% 0.00 in
00:50 71.3 °F 66.9 °F 29.97 in NNE 2.0 mph 3.0 mph 86% 0.00 in
00:51 71.2 °F 66.8 °F 29.97 in NNE 2.0 mph 3.0 mph 86% 0.00 in
00:55 71.3 °F 66.9 °F 29.97 in NE 2.0 mph 5.0 mph 86% 0.00 in
00:56 71.3 °F 66.9 °F 29.98 in NE 3.0 mph 4.0 mph 86% 0.00 in
00:58 71.2 °F 66.8 °F 29.98 in NE 1.0 mph 4.0 mph 86% 0.00 in
01:00 71.2 °F 66.8 °F 29.98 in NNE 3.0 mph 4.0 mph 86% 0.00 in
01:01 71.2 °F 66.8 °F 29.98 in NNE 4.0 mph 4.0 mph 86% 0.00 in
01:06 71.1 °F 66.7 °F 29.97 in NNE 2.0 mph 3.0 mph 86% 0.00 in
01:11 70.9 °F 66.5 °F 29.97 in NE 5.0 mph 5.0 mph 86% 0.00 in
01:16 70.9 °F 66.5 °F 29.97 in NE 2.0 mph 3.0 mph 86% 0.00 in
01:21 70.9 °F 66.5 °F 29.97 in NE 1.0 mph 2.0 mph 86% 0.00 in
01:26 70.8 °F 66.4 °F 29.97 in NE 1.0 mph 2.0 mph 86% 0.00 in
01:27 70.8 °F 66.4 °F 29.97 in NE 1.0 mph 2.0 mph 86% 0.00 in
01:30 70.6 °F 66.2 °F 29.97 in Calm   1.0 mph 86% 0.00 in
01:31 70.6 °F 66.6 °F 29.97 in Calm   1.0 mph 87% 0.00 in
01:33 70.5 °F 66.4 °F 29.97 in NNE 2.0 mph 2.0 mph 87% 0.00 in
01:35 70.5 °F 66.4 °F 29.97 in NNE 1.0 mph 2.0 mph 87% 0.00 in
01:36 70.4 °F 66.3 °F 29.97 in NNE 1.0 mph 2.0 mph 87% 0.00 in
01:38 70.3 °F 66.2 °F 29.97 in NNE 1.0 mph 2.0 mph 87% 0.00 in
01:43 70.2 °F 66.2 °F 29.97 in Calm   1.0 mph 87% 0.00 in
01:48 69.9 °F 66.2 °F 29.97 in Calm     88% 0.00 in
01:53 69.6 °F 65.9 °F 29.97 in Calm     88% 0.00 in
01:54 69.6 °F 65.9 °F 29.97 in Calm     88% 0.00 in
01:59 69.4 °F 66.0 °F 29.97 in Calm     89% 0.00 in
02:00 69.4 °F 66.0 °F 29.97 in Calm     89% 0.00 in
02:04 69.4 °F 66.0 °F 29.96 in Calm     89% 0.00 in
02:09 69.4 °F 66.0 °F 29.96 in NE 2.0 mph 3.0 mph 89% 0.00 in
02:14 69.4 °F 66.0 °F 29.96 in NE 1.0 mph 3.0 mph 89% 0.00 in
02:19 69.5 °F 66.1 °F 29.96 in NE 2.0 mph 3.0 mph 89% 0.00 in
02:24 69.6 °F 66.2 °F 29.96 in NE 3.0 mph 5.0 mph 89% 0.00 in
02:29 69.7 °F 66.3 °F 29.96 in NE 1.0 mph 4.0 mph 89% 0.00 in
02:30 69.7 °F 66.3 °F 29.96 in NE 3.0 mph 4.0 mph 89% 0.00 in
02:34 69.8 °F 66.1 °F 29.96 in NNE 3.0 mph 4.0 mph 88% 0.00 in
02:35 69.8 °F 66.1 °F 29.96 in NNE 3.0 mph 4.0 mph 88% 0.00 in
02:37 69.8 °F 66.1 °F 29.96 in NE 3.0 mph 4.0 mph 88% 0.00 in
02:40 69.7 °F 66.3 °F 29.96 in NNE 3.0 mph 4.0 mph 89% 0.00 in
02:46 69.6 °F 66.2 °F 29.96 in NE 3.0 mph 3.0 mph 89% 0.00 in
02:51 69.4 °F 66.0 °F 29.96 in NE 2.0 mph 3.0 mph 89% 0.00 in
02:52 69.3 °F 65.9 °F 29.96 in NE 2.0 mph 3.0 mph 89% 0.00 in
02:53 69.3 °F 65.9 °F 29.96 in NE 2.0 mph 3.0 mph 89% 0.00 in
02:56 69.2 °F 66.2 °F 29.96 in NE 2.0 mph 3.0 mph 90% 0.00 in
02:58 69.1 °F 66.1 °F 29.96 in NE 2.0 mph 3.0 mph 90% 0.00 in
03:00 69.0 °F 65.9 °F 29.96 in NNE 2.0 mph 3.0 mph 90% 0.00 in
03:03 69.0 °F 65.9 °F 29.96 in NNE 2.0 mph 3.0 mph 90% 0.00 in
03:08 68.8 °F 65.8 °F 29.96 in NNE 2.0 mph 3.0 mph 90% 0.00 in
03:13 68.6 °F 65.9 °F 29.96 in NE 2.0 mph 3.0 mph 91% 0.00 in
03:18 68.4 °F 65.7 °F 29.95 in NE 2.0 mph 3.0 mph 91% 0.00 in
03:23 68.3 °F 65.9 °F 29.95 in NNE 1.0 mph 3.0 mph 92% 0.00 in
03:28 68.2 °F 65.5 °F 29.96 in North 2.0 mph 4.0 mph 91% 0.00 in
03:29 68.2 °F 65.8 °F 29.96 in North 4.0 mph 4.0 mph 92% 0.00 in
03:30 68.2 °F 65.8 °F 29.96 in NNE 3.0 mph 4.0 mph 92% 0.00 in
03:33 68.3 °F 65.9 °F 29.96 in NNE 2.0 mph 3.0 mph 92% 0.00 in
03:38 68.4 °F 66.0 °F 29.96 in NE 3.0 mph 4.0 mph 92% 0.00 in
03:43 68.4 °F 65.7 °F 29.96 in NE 6.0 mph 6.0 mph 91% 0.00 in
03:48 68.3 °F 65.9 °F 29.96 in NNE 2.0 mph 5.0 mph 92% 0.00 in
03:53 68.2 °F 65.8 °F 29.96 in NNE 2.0 mph 4.0 mph 92% 0.00 in
03:54 68.2 °F 65.8 °F 29.96 in NNE 2.0 mph 4.0 mph 92% 0.00 in
03:57 68.2 °F 65.8 °F 29.96 in NNE 1.0 mph 3.0 mph 92% 0.00 in
03:59 68.1 °F 65.7 °F 29.96 in North 1.0 mph 3.0 mph 92% 0.00 in
04:00 68.1 °F 65.7 °F 29.96 in NNE 2.0 mph 2.0 mph 92% 0.00 in
04:04 68.0 °F 65.6 °F 29.95 in NE 1.0 mph 3.0 mph 92% 0.00 in
04:05 68.0 °F 65.6 °F 29.95 in NE 1.0 mph 3.0 mph 92% 0.00 in
04:10 67.8 °F 65.4 °F 29.95 in NE 1.0 mph 1.0 mph 92% 0.00 in
04:15 67.7 °F 65.6 °F 29.95 in NNE 1.0 mph 3.0 mph 93% 0.00 in
04:20 67.6 °F 65.5 °F 29.95 in NNE 2.0 mph 3.0 mph 93% 0.00 in
04:21 67.6 °F 65.5 °F 29.95 in NNE 1.0 mph 3.0 mph 93% 0.00 in
04:26 67.6 °F 65.5 °F 29.95 in Calm   4.0 mph 93% 0.00 in
04:27 67.6 °F 65.5 °F 29.95 in NNE 2.0 mph 4.0 mph 93% 0.00 in
04:30 67.6 °F 65.5 °F 29.95 in NNE 1.0 mph 3.0 mph 93% 0.00 in
04:32 67.7 °F 65.6 °F 29.95 in NE 3.0 mph 4.0 mph 93% 0.00 in
04:37 67.7 °F 65.6 °F 29.95 in NE 5.0 mph 5.0 mph 93% 0.00 in
04:42 67.8 °F 65.7 °F 29.95 in NNE 3.0 mph 6.0 mph 93% 0.00 in
04:47 67.9 °F 65.8 °F 29.95 in NE 1.0 mph 5.0 mph 93% 0.00 in
04:52 67.9 °F 65.8 °F 29.95 in NNE 3.0 mph 5.0 mph 93% 0.00 in
04:53 67.9 °F 65.8 °F 29.95 in North 4.0 mph 5.0 mph 93% 0.00 in
04:57 68.0 °F 65.9 °F 29.95 in NNE 3.0 mph 6.0 mph 93% 0.00 in
04:58 68.1 °F 66.0 °F 29.95 in NNE 2.0 mph 6.0 mph 93% 0.00 in
05:00 68.2 °F 66.1 °F 29.95 in NNE 3.0 mph 6.0 mph 93% 0.00 in
05:03 68.3 °F 66.2 °F 29.95 in NNE 3.0 mph 6.0 mph 93% 0.00 in
05:08 68.6 °F 66.5 °F 29.95 in NE 4.0 mph 5.0 mph 93% 0.00 in
05:13 68.6 °F 66.2 °F 29.95 in NNE 3.0 mph 4.0 mph 92% 0.00 in
05:18 68.5 °F 66.1 °F 29.95 in NE 2.0 mph 5.0 mph 92% 0.00 in
05:23 68.4 °F 66.0 °F 29.95 in NNE 1.0 mph 3.0 mph 92% 0.00 in
05:28 68.4 °F 66.3 °F 29.95 in NNE 4.0 mph 4.0 mph 93% 0.00 in
05:30 68.4 °F 66.3 °F 29.95 in NE 5.0 mph 5.0 mph 93% 0.00 in
05:33 68.6 °F 66.5 °F 29.95 in NNE 4.0 mph 5.0 mph 93% 0.00 in
05:35 68.7 °F 66.6 °F 29.95 in NNE 4.0 mph 5.0 mph 93% 0.00 in
05:37 68.8 °F 66.7 °F 29.95 in NNE 3.0 mph 5.0 mph 93% 0.00 in
05:42 68.8 °F 66.7 °F 29.95 in NNE 4.0 mph 5.0 mph 93% 0.00 in
05:47 68.9 °F 66.8 °F 29.95 in NE 3.0 mph 6.0 mph 93% 0.00 in
05:52 69.2 °F 67.1 °F 29.95 in NE 2.0 mph 7.0 mph 93% 0.00 in
05:53 69.2 °F 67.1 °F 29.95 in NNE 5.0 mph 7.0 mph 93% 0.00 in
05:58 69.4 °F 67.0 °F 29.95 in NE 5.0 mph 6.0 mph 92% 0.00 in
06:00 69.4 °F 67.0 °F 29.95 in NNE 3.0 mph 6.0 mph 92% 0.00 in
06:03 69.4 °F 67.0 °F 29.95 in NNE 3.0 mph 5.0 mph 92% 0.00 in
06:08 69.4 °F 67.3 °F 29.95 in NNE 3.0 mph 5.0 mph 93% 0.00 in
06:13 69.5 °F 67.1 °F 29.95 in NE 3.0 mph 4.0 mph 92% 0.00 in
06:18 69.6 °F 67.2 °F 29.95 in NE 2.0 mph 3.0 mph 92% 0.00 in
06:23 69.4 °F 67.0 °F 29.95 in NE 1.0 mph 4.0 mph 92% 0.00 in
06:24 69.4 °F 67.0 °F 29.95 in NE 2.0 mph 4.0 mph 92% 0.00 in
06:28 69.3 °F 66.9 °F 29.96 in NE 1.0 mph 4.0 mph 92% 0.00 in
06:29 69.3 °F 66.9 °F 29.96 in NE 3.0 mph 4.0 mph 92% 0.00 in
06:30 69.2 °F 66.8 °F 29.96 in NE 3.0 mph 4.0 mph 92% 0.00 in
06:35 69.1 °F 67.0 °F 29.96 in NE 4.0 mph 5.0 mph 93% 0.00 in
06:37 69.0 °F 66.9 °F 29.96 in NE 3.0 mph 5.0 mph 93% 0.00 in
06:42 68.9 °F 66.8 °F 29.96 in NE 3.0 mph 4.0 mph 93% 0.00 in
06:47 68.9 °F 66.8 °F 29.96 in NE 1.0 mph 3.0 mph 93% 0.00 in
06:52 69.0 °F 66.9 °F 29.96 in ENE 2.0 mph 3.0 mph 93% 0.00 in
06:57 68.9 °F 66.8 °F 29.96 in NE 2.0 mph 2.0 mph 93% 0.00 in
06:58 68.9 °F 66.8 °F 29.96 in NE 1.0 mph 2.0 mph 93% 0.00 in
07:02 68.8 °F 66.7 °F 29.97 in NE 2.0 mph 3.0 mph 93% 0.00 in
07:07 69.0 °F 66.9 °F 29.97 in NE 1.0 mph 3.0 mph 93% 0.00 in
07:08 69.0 °F 66.9 °F 29.97 in NE 2.0 mph 3.0 mph 93% 0.00 in
07:13 69.2 °F 67.1 °F 29.97 in NE 1.0 mph 2.0 mph 93% 0.00 in
07:18 69.4 °F 67.3 °F 29.97 in NE 2.0 mph 2.0 mph 93% 0.00 in
07:23 69.6 °F 67.2 °F 29.97 in NNE 2.0 mph 2.0 mph 92% 0.00 in
07:28 69.8 °F 67.4 °F 29.97 in NE 3.0 mph 3.0 mph 92% 0.00 in
07:29 69.8 °F 67.4 °F 29.97 in NE 2.0 mph 3.0 mph 92% 0.00 in
07:30 69.9 °F 67.5 °F 29.97 in ENE 1.0 mph 3.0 mph 92% 0.00 in
07:33 70.1 °F 67.7 °F 29.97 in NE 1.0 mph 3.0 mph 92% 0.00 in
07:34 70.1 °F 67.7 °F 29.97 in NE 1.0 mph 3.0 mph 92% 0.00 in
07:37 70.4 °F 68.0 °F 29.97 in NE 1.0 mph 2.0 mph 92% 0.00 in
07:38 70.5 °F 67.8 °F 29.97 in NE 1.0 mph 2.0 mph 91% 0.00 in
07:43 71.0 °F 68.2 °F 29.97 in NE 2.0 mph 2.0 mph 91% 0.00 in
07:49 71.3 °F 68.2 °F 29.97 in NE 1.0 mph 2.0 mph 90% 0.00 in
07:54 71.5 °F 68.4 °F 29.97 in ENE 2.0 mph 4.0 mph 90% 0.00 in
07:59 71.7 °F 68.3 °F 29.97 in NE 2.0 mph 4.0 mph 89% 0.00 in
08:00 71.8 °F 68.4 °F 29.97 in ENE 4.0 mph 5.0 mph 89% 0.00 in
08:04 72.0 °F 68.6 °F 29.97 in NE 5.0 mph 5.0 mph 89% 0.00 in
08:09 72.4 °F 69.0 °F 29.97 in NE 2.0 mph 4.0 mph 89% 0.00 in
08:14 72.6 °F 68.8 °F 29.97 in NNE 4.0 mph 7.0 mph 88% 0.00 in
08:20 72.9 °F 69.1 °F 29.97 in NE 3.0 mph 4.0 mph 88% 0.00 in
08:25 73.3 °F 69.5 °F 29.97 in East 1.0 mph 4.0 mph 88% 0.00 in
08:26 73.4 °F 69.6 °F 29.97 in NE 2.0 mph 4.0 mph 88% 0.00 in
08:30 73.6 °F 69.5 °F 29.97 in NE 5.0 mph 6.0 mph 87% 0.00 in
08:31 73.7 °F 69.6 °F 29.97 in NNE 4.0 mph 6.0 mph 87% 0.00 in
08:34 73.8 °F 69.7 °F 29.97 in NNE 4.0 mph 6.0 mph 87% 0.00 in
08:36 73.8 °F 69.7 °F 29.97 in North 3.0 mph 6.0 mph 87% 0.00 in
08:39 74.0 °F 69.9 °F 29.97 in NNE 2.0 mph 5.0 mph 87% 0.00 in
08:44 74.4 °F 69.9 °F 29.97 in NNE 2.0 mph 7.0 mph 86% 0.00 in
08:49 74.5 °F 70.4 °F 29.97 in NE 3.0 mph 6.0 mph 87% 0.00 in
08:54 75.1 °F 71.0 °F 29.97 in North 3.0 mph 3.0 mph 87% 0.00 in
08:56 75.2 °F 70.7 °F 29.97 in NNW 4.0 mph 5.0 mph 86% 0.00 in
08:59 75.3 °F 70.8 °F 29.98 in NNW 3.0 mph 5.0 mph 86% 0.00 in
09:00 75.4 °F 70.9 °F 29.97 in NE 6.0 mph 6.0 mph 86% 0.00 in
09:04 75.4 °F 70.9 °F 29.98 in ENE 3.0 mph 6.0 mph 86% 0.00 in
09:09 76.0 °F 71.2 °F 29.98 in ENE 4.0 mph 6.0 mph 85% 0.00 in
09:14 76.3 °F 71.5 °F 29.98 in NE 5.0 mph 6.0 mph 85% 0.00 in
09:19 76.6 °F 71.4 °F 29.98 in NNE 2.0 mph 7.0 mph 84% 0.00 in
09:24 76.9 °F 71.7 °F 29.98 in NE 1.0 mph 7.0 mph 84% 0.00 in
09:29 77.5 °F 71.9 °F 29.98 in NE 6.0 mph 7.0 mph 83% 0.00 in
09:30 77.5 °F 71.6 °F 29.98 in NE 6.0 mph 7.0 mph 82% 0.00 in
09:31 77.6 °F 71.7 °F 29.98 in NE 4.0 mph 7.0 mph 82% 0.00 in
09:35 77.8 °F 71.9 °F 29.98 in ENE 5.0 mph 5.0 mph 82% 0.00 in
09:36 77.9 °F 72.0 °F 29.98 in NNE 5.0 mph 6.0 mph 82% 0.00 in
09:38 78.1 °F 71.8 °F 29.98 in NE 4.0 mph 7.0 mph 81% 0.00 in
09:40 78.2 °F 71.5 °F 29.98 in NNE 3.0 mph 7.0 mph 80% 0.00 in
09:42 78.2 °F 71.5 °F 29.98 in NE 4.0 mph 8.0 mph 80% 0.00 in
09:45 78.3 °F 71.6 °F 29.98 in NE 5.0 mph 8.0 mph 80% 0.00 in
09:48 78.5 °F 71.8 °F 29.98 in NE 4.0 mph 6.0 mph 80% 0.00 in
09:50 78.6 °F 71.6 °F 29.98 in NE 5.0 mph 7.0 mph 79% 0.00 in
09:53 78.9 °F 72.2 °F 29.98 in NNE 4.0 mph 6.0 mph 80% 0.00 in
09:55 79.1 °F 72.0 °F 29.98 in NE 5.0 mph 6.0 mph 79% 0.00 in
09:58 79.5 °F 72.4 °F 29.98 in NNE 3.0 mph 5.0 mph 79% 0.00 in
10:00 79.7 °F 71.9 °F 29.98 in NNE 2.0 mph 6.0 mph 77% 0.00 in
10:06 79.9 °F 70.9 °F 29.98 in NNE 7.0 mph 7.0 mph 74% 0.00 in
10:11 79.7 °F 71.5 °F 29.98 in NNE 5.0 mph 8.0 mph 76% 0.00 in
10:16 80.0 °F 71.0 °F 29.98 in NNE 4.0 mph 9.0 mph 74% 0.00 in
10:21 80.2 °F 71.9 °F 29.98 in NE 3.0 mph 7.0 mph 76% 0.00 in
10:26 80.8 °F 70.9 °F 29.98 in NE 3.0 mph 6.0 mph 72% 0.00 in
10:28 80.9 °F 71.4 °F 29.98 in NNE 4.0 mph 5.0 mph 73% 0.00 in
10:30 80.9 °F 71.8 °F 29.98 in North 2.0 mph 5.0 mph 74% 0.00 in
10:31 81.0 °F 71.9 °F 29.98 in North 4.0 mph 5.0 mph 74% 0.00 in
10:32 81.0 °F 71.1 °F 29.98 in NNW 6.0 mph 6.0 mph 72% 0.00 in
10:34 81.1 °F 71.2 °F 29.98 in NE 4.0 mph 7.0 mph 72% 0.00 in
10:37 81.2 °F 71.3 °F 29.98 in ENE 2.0 mph 6.0 mph 72% 0.00 in
10:39 81.5 °F 70.8 °F 29.98 in NNW 4.0 mph 6.0 mph 70% 0.00 in
10:42 81.6 °F 70.4 °F 29.98 in NE 4.0 mph 6.0 mph 69% 0.00 in
10:47 81.6 °F 70.0 °F 29.98 in NNE 3.0 mph 8.0 mph 68% 0.00 in
10:52 81.7 °F 70.1 °F 29.98 in ENE 4.0 mph 6.0 mph 68% 0.00 in
10:57 82.0 °F 70.8 °F 29.98 in North 6.0 mph 7.0 mph 69% 0.00 in
10:58 82.1 °F 68.3 °F 29.98 in NNE 4.0 mph 6.0 mph 63% 0.00 in
11:00 82.2 °F 68.8 °F 29.98 in NE 2.0 mph 6.0 mph 64% 0.00 in
11:02 82.3 °F 68.5 °F 29.98 in NNE 5.0 mph 10.0 mph 63% 0.00 in
11:07 82.3 °F 68.9 °F 29.97 in ENE 3.0 mph 7.0 mph 64% 0.00 in
11:12 82.6 °F 68.3 °F 29.98 in NNE 4.0 mph 7.0 mph 62% 0.00 in
11:13 82.7 °F 68.4 °F 29.98 in NE 4.0 mph 7.0 mph 62% 0.00 in
11:18 82.8 °F 68.5 °F 29.98 in NNE 2.0 mph 8.0 mph 62% 0.00 in
11:24 83.2 °F 68.4 °F 29.98 in ENE 6.0 mph 7.0 mph 61% 0.00 in
11:29 83.4 °F 68.1 °F 29.98 in NE 6.0 mph 7.0 mph 60% 0.00 in
11:30 83.5 °F 68.2 °F 29.98 in NE 4.0 mph 7.0 mph 60% 0.00 in
11:34 83.5 °F 67.7 °F 29.98 in ESE 3.0 mph 7.0 mph 59% 0.00 in
11:35 83.5 °F 67.7 °F 29.98 in NNE 4.0 mph 7.0 mph 59% 0.00 in
11:39 83.6 °F 68.7 °F 29.98 in NE 6.0 mph 8.0 mph 61% 0.00 in
11:44 83.7 °F 68.3 °F 29.97 in NE 7.0 mph 12.0 mph 60% 0.00 in
11:49 84.0 °F 69.1 °F 29.97 in NNW 3.0 mph 6.0 mph 61% 0.00 in
11:54 84.3 °F 70.3 °F 29.97 in North 4.0 mph 7.0 mph 63% 0.00 in
11:56 84.3 °F 69.4 °F 29.97 in North 2.0 mph 7.0 mph 61% 0.00 in
11:59 84.7 °F 70.7 °F 29.97 in ENE 6.0 mph 7.0 mph 63% 0.00 in
12:00 84.8 °F 70.3 °F 29.97 in NNE 3.0 mph 7.0 mph 62% 0.00 in
12:01 84.7 °F 70.2 °F 29.97 in NNE 3.0 mph 7.0 mph 62% 0.00 in
12:06 84.7 °F 69.8 °F 29.98 in NE 4.0 mph 9.0 mph 61% 0.00 in
12:11 84.9 °F 69.5 °F 29.98 in NNE 6.0 mph 7.0 mph 60% 0.00 in
12:17 85.1 °F 69.7 °F 29.98 in East 4.0 mph 5.0 mph 60% 0.00 in
12:22 85.1 °F 67.7 °F 29.98 in East 4.0 mph 8.0 mph 56% 0.00 in
12:27 85.3 °F 68.3 °F 29.97 in East 2.0 mph 5.0 mph 57% 0.00 in
12:28 85.4 °F 68.4 °F 29.98 in ENE 4.0 mph 5.0 mph 57% 0.00 in
12:30 85.3 °F 68.9 °F 29.97 in ENE 2.0 mph 6.0 mph 58% 0.00 in
12:33 85.4 °F 67.4 °F 29.97 in ESE 1.0 mph 7.0 mph 55% 0.00 in
12:35 85.6 °F 69.1 °F 29.97 in ESE 3.0 mph 7.0 mph 58% 0.00 in
12:36 85.7 °F 69.7 °F 29.97 in NE 5.0 mph 6.0 mph 59% 0.00 in
12:38 85.7 °F 66.6 °F 29.97 in NNE 6.0 mph 7.0 mph 53% 0.00 in
12:43 85.5 °F 67.5 °F 29.97 in ENE 5.0 mph 9.0 mph 55% 0.00 in
12:44 85.5 °F 67.5 °F 29.97 in ENE 6.0 mph 9.0 mph 55% 0.00 in
12:49 85.5 °F 66.4 °F 29.98 in NNE 5.0 mph 7.0 mph 53% 0.00 in
12:54 85.6 °F 67.1 °F 29.98 in NE 3.0 mph 9.0 mph 54% 0.00 in
12:55 85.6 °F 67.1 °F 29.98 in NE 2.0 mph 9.0 mph 54% 0.00 in
12:59 85.7 °F 66.6 °F 29.97 in NNW 3.0 mph 8.0 mph 53% 0.00 in
13:00 85.7 °F 68.2 °F 29.97 in NE 3.0 mph 7.0 mph 56% 0.00 in
13:04 85.7 °F 65.5 °F 29.97 in ENE 4.0 mph 11.0 mph 51% 0.00 in
13:09 86.0 °F 66.3 °F 29.97 in NE 6.0 mph 9.0 mph 52% 0.00 in
13:14 86.3 °F 66.1 °F 29.97 in NE 3.0 mph 7.0 mph 51% 0.00 in
13:19 86.4 °F 65.0 °F 29.97 in NNW 2.0 mph 8.0 mph 49% 0.00 in
13:24 86.6 °F 67.4 °F 29.97 in ENE 6.0 mph 7.0 mph 53% 0.00 in
13:29 86.4 °F 63.8 °F 29.97 in NE 3.0 mph 10.0 mph 47% 0.00 in
13:30 86.5 °F 64.5 °F 29.97 in NE 3.0 mph 10.0 mph 48% 0.00 in
13:31 86.5 °F 64.5 °F 29.97 in ENE 3.0 mph 10.0 mph 48% 0.00 in
13:35 86.8 °F 62.9 °F 29.96 in NNW 3.0 mph 9.0 mph 45% 0.00 in
13:36 86.8 °F 64.8 °F 29.96 in NNE 6.0 mph 9.0 mph 48% 0.00 in
13:41 87.0 °F 66.1 °F 29.96 in NE 4.0 mph 8.0 mph 50% 0.00 in
13:46 87.0 °F 64.3 °F 29.96 in NNE 4.0 mph 10.0 mph 47% 0.00 in
13:47 87.0 °F 64.3 °F 29.96 in North 2.0 mph 6.0 mph 47% 0.00 in
13:52 87.2 °F 64.5 °F 29.96 in NNE 2.0 mph 10.0 mph 47% 0.00 in
13:57 87.3 °F 66.4 °F 29.96 in North 8.0 mph 10.0 mph 50% 0.00 in
13:58 87.3 °F 65.2 °F 29.96 in North 4.0 mph 10.0 mph 48% 0.00 in
14:00 87.4 °F 64.7 °F 29.96 in NE 3.0 mph 7.0 mph 47% 0.00 in
14:03 87.4 °F 64.7 °F 29.96 in NE 3.0 mph 6.0 mph 47% 0.00 in
14:08 87.8 °F 66.9 °F 29.96 in North 3.0 mph 6.0 mph 50% 0.00 in
14:13 87.7 °F 66.2 °F 29.96 in North 6.0 mph 8.0 mph 49% 0.00 in
14:18 88.0 °F 65.9 °F 29.96 in NE 3.0 mph 7.0 mph 48% 0.00 in
14:23 88.0 °F 64.7 °F 29.95 in NE 3.0 mph 6.0 mph 46% 0.00 in
14:28 88.3 °F 63.0 °F 29.95 in NE 4.0 mph 4.0 mph 43% 0.00 in
14:29 88.3 °F 63.0 °F 29.95 in NE 6.0 mph 6.0 mph 43% 0.00 in
14:30 88.2 °F 64.2 °F 29.95 in ENE 3.0 mph 6.0 mph 45% 0.00 in
14:34 88.1 °F 64.7 °F 29.95 in NE 3.0 mph 9.0 mph 46% 0.00 in
14:35 88.0 °F 65.3 °F 29.95 in NE 4.0 mph 9.0 mph 47% 0.00 in
14:36 87.9 °F 63.9 °F 29.95 in ENE 5.0 mph 9.0 mph 45% 0.00 in
14:40 87.8 °F 64.5 °F 29.95 in ENE 6.0 mph 9.0 mph 46% 0.00 in
14:45 87.9 °F 64.6 °F 29.95 in NNE 8.0 mph 8.0 mph 46% 0.00 in
14:50 88.0 °F 65.3 °F 29.95 in ENE 7.0 mph 8.0 mph 47% 0.00 in
14:51 87.9 °F 65.2 °F 29.95 in ENE 6.0 mph 8.0 mph 47% 0.00 in
14:56 87.7 °F 63.8 °F 29.95 in NE 4.0 mph 6.0 mph 45% 0.00 in
15:00 88.0 °F 65.9 °F 29.95 in NE 5.0 mph 5.0 mph 48% 0.00 in
15:01 88.0 °F 65.9 °F 29.95 in NE 6.0 mph 6.0 mph 48% 0.00 in
15:02 88.0 °F 63.4 °F 29.95 in NNE 5.0 mph 6.0 mph 44% 0.00 in
15:06 88.2 °F 64.2 °F 29.94 in ENE 4.0 mph 8.0 mph 45% 0.00 in
15:11 88.7 °F 65.9 °F 29.94 in NNE 5.0 mph 5.0 mph 47% 0.00 in
15:16 88.6 °F 63.3 °F 29.94 in North 5.0 mph 5.0 mph 43% 0.00 in
15:21 88.9 °F 62.9 °F 29.94 in ENE 6.0 mph 6.0 mph 42% 0.00 in
15:26 88.7 °F 61.3 °F 29.94 in NE 2.0 mph 8.0 mph 40% 0.00 in
15:27 88.6 °F 61.2 °F 29.94 in NE 2.0 mph 8.0 mph 40% 0.00 in
15:29 88.7 °F 61.3 °F 29.94 in ENE 6.0 mph 8.0 mph 40% 0.00 in
15:30 88.6 °F 61.9 °F 29.94 in East 4.0 mph 6.0 mph 41% 0.00 in
15:34 88.7 °F 64.7 °F 29.94 in ENE 4.0 mph 5.0 mph 45% 0.00 in
15:39 88.8 °F 62.1 °F 29.94 in NE 4.0 mph 7.0 mph 41% 0.00 in
15:44 89.0 °F 63.0 °F 29.94 in East 5.0 mph 6.0 mph 42% 0.00 in
15:49 88.9 °F 62.9 °F 29.93 in North 3.0 mph 6.0 mph 42% 0.00 in
15:54 89.0 °F 61.6 °F 29.93 in ENE 6.0 mph 8.0 mph 40% 0.00 in
15:55 89.0 °F 61.6 °F 29.93 in NE 4.0 mph 8.0 mph 40% 0.00 in
15:56 88.9 °F 61.5 °F 29.93 in East 4.0 mph 8.0 mph 40% 0.00 in
15:57 89.0 °F 62.3 °F 29.93 in East 3.0 mph 8.0 mph 41% 0.00 in
16:00 89.1 °F 61.7 °F 29.93 in East 2.0 mph 6.0 mph 40% 0.00 in
16:02 89.1 °F 60.9 °F 29.93 in ESE 2.0 mph 5.0 mph 39% 0.00 in
16:07 89.3 °F 63.2 °F 29.93 in East 4.0 mph 5.0 mph 42% 0.00 in
16:12 89.1 °F 62.4 °F 29.93 in NE 3.0 mph 6.0 mph 41% 0.00 in
16:17 89.2 °F 63.8 °F 29.93 in NE 5.0 mph 7.0 mph 43% 0.00 in
16:22 89.2 °F 59.5 °F 29.92 in NE 6.0 mph 9.0 mph 37% 0.00 in
16:27 89.4 °F 60.5 °F 29.92 in NE 3.0 mph 9.0 mph 38% 0.00 in
16:28 89.5 °F 64.7 °F 29.92 in North 8.0 mph 9.0 mph 44% 0.00 in
16:29 89.5 °F 62.0 °F 29.92 in NE 3.0 mph 9.0 mph 40% 0.00 in
16:30 89.5 °F 62.7 °F 29.92 in NE 4.0 mph 9.0 mph 41% 0.00 in
16:32 89.6 °F 60.7 °F 29.92 in ENE 3.0 mph 5.0 mph 38% 0.00 in
16:33 89.6 °F 60.7 °F 29.92 in NNE 4.0 mph 5.0 mph 38% 0.00 in
16:35 89.4 °F 59.7 °F 29.92 in NE 4.0 mph 8.0 mph 37% 0.00 in
16:38 89.4 °F 60.5 °F 29.92 in NE 4.0 mph 7.0 mph 38% 0.00 in
16:43 89.4 °F 60.5 °F 29.92 in ENE 6.0 mph 7.0 mph 38% 0.00 in
16:49 89.5 °F 62.7 °F 29.92 in NNE 4.0 mph 4.0 mph 41% 0.00 in
16:54 89.3 °F 60.4 °F 29.92 in NE 4.0 mph 7.0 mph 38% 0.00 in
16:59 89.3 °F 63.2 °F 29.92 in NNE 3.0 mph 6.0 mph 42% 0.00 in
17:00 89.4 °F 61.9 °F 29.92 in NNE 6.0 mph 6.0 mph 40% 0.00 in
17:04 89.3 °F 62.5 °F 29.92 in NNE 4.0 mph 7.0 mph 41% 0.00 in
17:09 89.6 °F 62.1 °F 29.92 in East 4.0 mph 4.0 mph 40% 0.00 in
17:14 89.7 °F 62.2 °F 29.92 in ENE 3.0 mph 4.0 mph 40% 0.00 in
17:19 89.9 °F 61.7 °F 29.91 in NE 3.0 mph 4.0 mph 39% 0.00 in
17:24 89.7 °F 61.5 °F 29.91 in ENE 3.0 mph 6.0 mph 39% 0.00 in
17:29 89.7 °F 62.9 °F 29.91 in NE 2.0 mph 5.0 mph 41% 0.00 in
17:30 89.8 °F 63.0 °F 29.91 in NE 4.0 mph 6.0 mph 41% 0.00 in
17:34 89.7 °F 62.2 °F 29.91 in NE 3.0 mph 5.0 mph 40% 0.00 in
17:35 89.7 °F 60.7 °F 29.91 in ENE 1.0 mph 4.0 mph 38% 0.00 in
17:36 89.8 °F 63.0 °F 29.91 in NE 3.0 mph 3.0 mph 41% 0.00 in
17:40 89.9 °F 63.1 °F 29.91 in NNE 2.0 mph 8.0 mph 41% 0.00 in
17:42 89.8 °F 62.3 °F 29.91 in NE 4.0 mph 5.0 mph 40% 0.00 in
17:46 89.7 °F 63.6 °F 29.91 in NE 3.0 mph 6.0 mph 42% 0.00 in
17:51 89.9 °F 64.4 °F 29.90 in NE 1.0 mph 4.0 mph 43% 0.00 in
17:52 89.9 °F 64.4 °F 29.90 in NE 1.0 mph 4.0 mph 43% 0.00 in
17:56 90.1 °F 63.2 °F 29.90 in NNE 2.0 mph 4.0 mph 41% 0.00 in
17:57 90.1 °F 62.5 °F 29.90 in NNE 1.0 mph 4.0 mph 40% 0.00 in
18:00 90.2 °F 63.3 °F 29.90 in NNE 2.0 mph 4.0 mph 41% 0.00 in
18:02 90.2 °F 63.3 °F 29.90 in NE 3.0 mph 6.0 mph 41% 0.00 in
18:07 90.0 °F 64.5 °F 29.90 in NNE 3.0 mph 4.0 mph 43% 0.00 in
18:12 89.8 °F 63.7 °F 29.90 in NE 3.0 mph 5.0 mph 42% 0.00 in
18:13 89.8 °F 63.7 °F 29.90 in NE 2.0 mph 5.0 mph 42% 0.00 in
18:18 89.8 °F 66.9 °F 29.90 in NNE 1.0 mph 3.0 mph 47% 0.00 in
18:24 89.9 °F 63.8 °F 29.90 in ENE 3.0 mph 5.0 mph 42% 0.00 in
18:29 89.6 °F 64.2 °F 29.90 in NNE 5.0 mph 7.0 mph 43% 0.00 in
18:30 89.6 °F 66.7 °F 29.90 in NE 3.0 mph 6.0 mph 47% 0.00 in
18:34 89.5 °F 64.7 °F 29.90 in NW 3.0 mph 5.0 mph 44% 0.00 in
18:35 89.5 °F 64.7 °F 29.89 in NNW 3.0 mph 5.0 mph 44% 0.00 in
18:36 89.6 °F 64.8 °F 29.89 in NNE 1.0 mph 4.0 mph 44% 0.00 in
18:40 89.6 °F 64.8 °F 29.89 in North 2.0 mph 4.0 mph 44% 0.00 in
18:45 89.6 °F 66.1 °F 29.89 in NE 3.0 mph 5.0 mph 46% 0.00 in
18:50 89.5 °F 64.1 °F 29.89 in NNE 2.0 mph 5.0 mph 43% 0.00 in
18:51 89.5 °F 65.4 °F 29.89 in North 4.0 mph 5.0 mph 45% 0.00 in
18:56 89.5 °F 64.7 °F 29.89 in NNW 3.0 mph 5.0 mph 44% 0.00 in
18:57 89.4 °F 64.6 °F 29.89 in NNE 4.0 mph 5.0 mph 44% 0.00 in
19:00 89.3 °F 64.6 °F 29.89 in NNE 3.0 mph 4.0 mph 44% 0.00 in
19:02 89.3 °F 64.6 °F 29.89 in NNW 2.0 mph 4.0 mph 44% 0.00 in
19:07 89.3 °F 65.2 °F 29.89 in NW 3.0 mph 5.0 mph 45% 0.00 in
19:12 89.2 °F 65.1 °F 29.88 in NNW 2.0 mph 4.0 mph 45% 0.00 in
19:17 89.0 °F 64.9 °F 29.88 in North 3.0 mph 4.0 mph 45% 0.00 in
19:22 88.9 °F 65.5 °F 29.88 in North 1.0 mph 4.0 mph 46% 0.00 in
19:27 88.7 °F 65.3 °F 29.89 in NNE 2.0 mph 4.0 mph 46% 0.00 in
19:30 88.7 °F 66.5 °F 29.88 in NNE 1.0 mph 3.0 mph 48% 0.00 in
19:32 88.7 °F 66.5 °F 29.89 in North 1.0 mph 3.0 mph 48% 0.00 in
20:00 88.3 °F 66.7 °F 29.89 in NNE 1.0 mph 3.0 mph 49% 0.00 in
20:30 87.8 °F 68.6 °F 29.89 in Calm   1.0 mph 53% 0.00 in
21:00 84.0 °F 69.1 °F 29.89 in Calm     61% 0.00 in
21:36 80.2 °F 69.9 °F 29.89 in Calm   5.0 mph 71% 0.00 in
21:41 79.2 °F 66.9 °F 29.90 in Calm   1.0 mph 66% 0.00 in
21:42 79.2 °F 66.9 °F 29.90 in Calm   1.0 mph 66% 0.00 in
21:47 79.3 °F 67.4 °F 29.90 in North 1.0 mph 2.0 mph 67% 0.00 in
21:52 79.3 °F 67.4 °F 29.90 in North 1.0 mph 2.0 mph 67% 0.00 in
21:53 79.3 °F 67.4 °F 29.90 in NNE 2.0 mph 2.0 mph 67% 0.00 in
21:57 79.3 °F 67.4 °F 29.90 in North 1.0 mph 2.0 mph 67% 0.00 in
21:58 79.3 °F 67.4 °F 29.90 in North 1.0 mph 2.0 mph 67% 0.00 in
22:02 79.2 °F 67.3 °F 29.90 in North 1.0 mph 2.0 mph 67% 0.00 in
22:07 79.1 °F 67.6 °F 29.90 in Calm   1.0 mph 68% 0.00 in
22:12 78.9 °F 67.9 °F 29.90 in North 1.0 mph 1.0 mph 69% 0.00 in
22:17 78.8 °F 67.8 °F 29.90 in North 1.0 mph 1.0 mph 69% 0.00 in
22:22 78.6 °F 67.6 °F 29.91 in Calm   1.0 mph 69% 0.00 in
22:23 78.6 °F 67.6 °F 29.91 in Calm   1.0 mph 69% 0.00 in
22:28 78.2 °F 67.6 °F 29.91 in Calm   1.0 mph 70% 0.00 in
22:33 77.5 °F 67.4 °F 29.91 in Calm     71% 0.00 in
22:35 77.2 °F 67.5 °F 29.91 in Calm     72% 0.00 in
22:38 76.8 °F 67.9 °F 29.91 in Calm     74% 0.00 in
22:40 76.7 °F 67.8 °F 29.91 in Calm   1.0 mph 74% 0.00 in
22:45 77.1 °F 68.2 °F 29.92 in Calm   1.0 mph 74% 0.00 in
22:50 77.4 °F 68.5 °F 29.92 in North 1.0 mph 1.0 mph 74% 0.00 in
22:51 77.4 °F 68.5 °F 29.92 in North 1.0 mph 1.0 mph 74% 0.00 in
22:52 77.4 °F 68.5 °F 29.92 in North 1.0 mph 2.0 mph 74% 0.00 in
22:56 77.5 °F 68.6 °F 29.92 in Calm   1.0 mph 74% 0.00 in
22:57 77.5 °F 68.6 °F 29.92 in Calm   1.0 mph 74% 0.00 in
23:01 77.5 °F 68.6 °F 29.92 in Calm   1.0 mph 74% 0.00 in
23:02 77.4 °F 68.5 °F 29.92 in North 1.0 mph 1.0 mph 74% 0.00 in
23:07 77.2 °F 68.3 °F 29.92 in North 1.0 mph 1.0 mph 74% 0.00 in
23:12 76.9 °F 68.4 °F 29.92 in NNW 2.0 mph 2.0 mph 75% 0.00 in
23:17 76.4 °F 68.3 °F 29.92 in Calm   1.0 mph 76% 0.00 in
23:22 76.0 °F 68.3 °F 29.92 in Calm   1.0 mph 77% 0.00 in
23:27 76.1 °F 68.4 °F 29.93 in Calm   2.0 mph 77% 0.00 in
23:32 76.5 °F 68.4 °F 29.93 in NNE 2.0 mph 2.0 mph 76% 0.00 in
23:35 76.6 °F 68.5 °F 29.93 in NNE 2.0 mph 3.0 mph 76% 0.00 in
23:36 76.7 °F 68.6 °F 29.93 in NNE 1.0 mph 3.0 mph 76% 0.00 in
23:40 76.7 °F 68.2 °F 29.93 in NNE 2.0 mph 2.0 mph 75% 0.00 in
23:45 76.7 °F 68.2 °F 29.93 in NNE 2.0 mph 2.0 mph 75% 0.00 in
23:50 76.7 °F 68.2 °F 29.93 in Calm   3.0 mph 75% 0.00 in
23:51 76.7 °F 68.2 °F 29.93 in Calm   3.0 mph 75% 0.00 in
23:52 76.6 °F 68.1 °F 29.93 in Calm   3.0 mph 75% 0.00 in
23:56 76.5 °F 68.4 °F 29.93 in Calm     76% 0.00 in
23:57 76.4 °F 68.3 °F 29.93 in Calm     76% 0.00 in
Compliments of Weather Underground